Springfield, MO

10:14 PM CDT on April 22, 2018 (GMT -0500)
Springfield-Branson Regional

Weather History for KSGF - November, 2011

Change the Weather History Date:

Saturday, November 19, 2011

  Actual Average Record
Temperature  
Mean Temperature 56 °F 44 °F  
Max Temperature 67 °F 55 °F 76 °F (1979)
Min Temperature 45 °F 34 °F 13 °F (1914)
Degree Days  
Heating Degree Days 9 21  
Month to date heating degree days 264 314  
Since 1 July heating degree days 608 622  
Cooling Degree Days 0 0  
Month to date cooling degree days 0 0  
Year to date cooling degree days 1818 1387  
Growing Degree Days 6 (Base 50)    
Moisture  
Dew Point 46 °F    
Average Humidity 65    
Maximum Humidity 84    
Minimum Humidity 45    
Precipitation  
Precipitation 0.06 in 0.14 in 1.19 in (1934)
Month to date precipitation 3.69 2.70  
Year to date precipitation 36.18 41.01  
Snow  
Snow 0.00 in - - ()
Month to date snowfall T  
Since 1 July snowfall T  
Since 1 September snowfall T  
Snow Depth 0.00 in    
Sea Level Pressure  
Sea Level Pressure 29.84 in    
Wind  
Wind Speed 18 mph (South)    
Max Wind Speed 31 mph    
Max Gust Speed 40 mph    
Visibility 10 miles    
Events Rain    
T = Trace of Precipitation, MM = Missing Value Source: NWS Daily Summary

Daily Weather History Graph

Daily Weather History Graph

Search for Another Location

Airport or City:

Astronomy

Nov. 19, 2011 Rise Set
Actual Time 6:56 AM CST 5:00 PM CST
Civil Twilight 6:28 AM CST 5:28 PM CST
Nautical Twilight 5:56 AM CST 6:00 PM CST
Astronomical Twilight 5:25 AM CST 6:31 PM CST
Moon 12:26 AM CST (11/19) 1:11 PM CST (11/19)
Length of Visible Light 11h 00m
Length of Day
10h 04m
Last Quarter, 38% of the Moon is Illuminated
Nov 19
Last Quarter
Nov 25
New
Dec 2
First Quarter
Dec 10
Full
Dec 17
Last Quarter

Hourly Weather History & Observations

Time (CST) Temp. Windchill Dew Point Humidity Pressure Visibility Wind Dir Wind Speed Gust Speed Precip Events Conditions
12:52 AM 46.0 °F 38.8 °F 28.0 °F 50% 29.87 in 10.0 mi SSE 18.4 mph 26.5 mph N/A   Mostly Cloudy
1:52 AM 45.0 °F 37.6 °F 28.9 °F 53% 29.84 in 10.0 mi SSE 17.3 mph - N/A   Partly Cloudy
2:52 AM 46.0 °F 39.9 °F 30.0 °F 54% 29.83 in 10.0 mi SSE 13.8 mph - N/A   Clear
3:40 AM 48.2 °F - 33.8 °F 58% 29.82 in 10.0 mi SSE 15.0 mph - N/A   Mostly Cloudy
3:52 AM 48.9 °F - 34.0 °F 56% 29.81 in 10.0 mi South 17.3 mph 23.0 mph N/A   Mostly Cloudy
4:28 AM 50.0 °F - 35.6 °F 58% 29.81 in 10.0 mi SSE 17.3 mph - N/A   Overcast
4:52 AM 50.0 °F - 35.6 °F 58% 29.80 in 10.0 mi SSE 19.6 mph 26.5 mph N/A   Overcast
5:52 AM 50.0 °F - 37.9 °F 63% 29.80 in 10.0 mi SSE 19.6 mph 25.3 mph N/A   Partly Cloudy
6:52 AM 51.1 °F - 39.9 °F 66% 29.80 in 10.0 mi SSE 17.3 mph - N/A   Overcast
7:52 AM 52.0 °F - 42.1 °F 69% 29.81 in 10.0 mi SSE 19.6 mph - N/A   Overcast
8:52 AM 55.0 °F - 45.0 °F 69% 29.81 in 10.0 mi South 19.6 mph - N/A   Mostly Cloudy
9:52 AM 57.9 °F - 48.0 °F 70% 29.81 in 10.0 mi South 25.3 mph 32.2 mph N/A   Overcast
10:19 AM 57.2 °F - 48.2 °F 72% 29.80 in 10.0 mi South 21.9 mph 31.1 mph N/A   Overcast
10:52 AM 60.1 °F - 51.1 °F 72% 29.80 in 10.0 mi South 26.5 mph 38.0 mph N/A   Mostly Cloudy
11:52 AM 62.1 °F - 52.0 °F 70% 29.78 in 10.0 mi South 28.8 mph 34.5 mph N/A   Overcast
12:00 PM 60.8 °F - 51.8 °F 72% 29.78 in 10.0 mi South 25.3 mph 34.5 mph N/A   Overcast
12:21 PM 60.8 °F - 51.8 °F 72% 29.77 in 10.0 mi South 26.5 mph 32.2 mph N/A   Overcast
12:52 PM 63.0 °F - 53.1 °F 70% 29.76 in 10.0 mi South 20.7 mph 31.1 mph N/A   Overcast
1:21 PM 64.4 °F - 53.6 °F 68% 29.77 in 10.0 mi South 21.9 mph 31.1 mph N/A   Mostly Cloudy
1:52 PM 66.0 °F - 55.0 °F 68% 29.76 in 10.0 mi South 19.6 mph 25.3 mph 0.01 in   Overcast
2:52 PM 66.2 °F - 53.6 °F 64% 29.79 in 10.0 mi SSW 25.3 mph 33.4 mph N/A   Overcast
3:52 PM 64.9 °F - 54.0 °F 68% 29.80 in 10.0 mi SSW 24.2 mph 29.9 mph N/A   Overcast
4:52 PM 64.0 °F - 55.0 °F 73% 29.82 in 10.0 mi SSW 17.3 mph - N/A   Partly Cloudy
5:52 PM 60.1 °F - 54.0 °F 80% 29.84 in 10.0 mi South 12.7 mph - N/A   Clear
6:52 PM 61.0 °F - 55.0 °F 81% 29.87 in 10.0 mi South 13.8 mph - N/A   Scattered Clouds
7:52 PM 60.1 °F - 55.0 °F 83% 29.90 in 10.0 mi South 10.4 mph - N/A   Scattered Clouds
8:52 PM 61.0 °F - 55.9 °F 83% 29.91 in 10.0 mi South 12.7 mph - N/A   Mostly Cloudy
9:18 PM 62.6 °F - 57.2 °F 82% 29.95 in 6.0 mi SW 9.2 mph 29.9 mph 0.01 in Rain Rain
9:43 PM 53.6 °F - 50.0 °F 88% 29.97 in 10.0 mi NNW 8.1 mph - 0.06 in Rain Light Rain
9:52 PM 53.1 °F - 48.9 °F 86% 29.97 in 10.0 mi NW 9.2 mph - 0.06 in Rain Light Rain
10:52 PM 52.0 °F - 46.0 °F 80% 30.00 in 10.0 mi NNW 9.2 mph - 0.00 in   Overcast
11:52 PM 48.9 °F - 42.1 °F 77% 30.02 in 10.0 mi North 11.5 mph 23.0 mph 0.00 in Rain Light Rain